CW1459 Weather Reports


time (UTC)temp
C
wind
direction
speed
KPH
gust
KPH
rain 1hr
cm
rain 24hr
cm
rain mn
cm
humidity
%
barometer
mb
20260509014352 16 161 3.2 8.0 0.00 0.00 0.00 49 1010.0
20260509013335 15 143 4.8 11.3 0.00 0.00 0.00 51 1010.0
20260509012319 15 142 1.6 4.8 0.00 0.00 0.00 56 1009.9
20260509011349 16 117 1.6 3.2 0.00 0.00 0.00 52 1010.0
20260509010338 16 110 3.2 6.4 0.00 0.00 0.00 51 1010.1
20260509005321 15 126 4.8 11.3 0.00 0.00 0.00 50 1010.1
20260509004322 15 106 3.2 6.4 0.00 0.00 0.00 54 1010.0
20260509003336 15 114 1.6 4.8 0.00 0.00 0.00 55 1009.9
20260509002314 15 122 1.6 4.8 0.00 0.00 0.00 56 1009.9
20260509001316 16 133 1.6 4.8 0.00 0.00 0.00 55 1009.7
20260509000359 16 133 3.2 4.8 0.00 0.00 0.00 50 1009.7
20260508235334 17 351 1.6 1.6 0.00 0.00 0.00 49 1009.5
20260508234338 18 351 0.0 3.2 0.00 0.00 0.00 45 1009.5
20260508233314 18 360 3.2 4.8 0.00 0.00 0.00 42 1009.5
20260508232318 19 351 4.8 9.7 0.00 0.00 0.00 41 1009.5
20260508231315 19 351 3.2 8.0 0.00 0.00 0.00 42 1009.5
20260508230339 19 302 4.8 8.0 0.00 0.00 0.00 40 1009.5
20260508225359 18 300 1.6 3.2 0.00 0.00 0.00 48 1009.5
20260508224338 18 301 1.6 8.0 0.00 0.00 0.00 42 1009.5
20260508223335 18 323 4.8 9.7 0.00 0.00 0.00 42 1009.6
20260508222337 18 331 3.2 9.7 0.00 0.00 0.00 42 1009.5
20260508221335 18 307 6.4 14.5 0.00 0.00 0.00 41 1009.6
20260508220339 18 292 6.4 16.1 0.00 0.00 0.00 40 1009.7
20260508215316 18 289 4.8 16.1 0.00 0.00 0.00 41 1009.6
20260508214334 18 289 6.4 14.5 0.00 0.00 0.00 39 1009.6
20260508213358 18 330 6.4 16.1 0.00 0.00 0.00 39 1009.7
20260508212350 18 310 6.4 24.1 0.00 0.00 0.00 38 1009.7
20260508211316 18 301 8.0 19.3 0.00 0.00 0.00 36 1009.8
20260508210340 19 296 6.4 20.9 0.00 0.00 0.00 35 1009.7
20260508205318 19 284 4.8 19.3 0.00 0.00 0.00 36 1009.6
20260508204320 19 286 11.3 16.1 0.00 0.00 0.00 35 1009.6
20260508203340 19 246 4.8 14.5 0.00 0.00 0.00 36 1009.7
20260508202316 20 246 6.4 16.1 0.00 0.00 0.00 36 1009.8
20260508201353 20 300 8.0 20.9 0.00 0.00 0.00 33 1010.0
20260508200334 21 217 12.9 22.5 0.00 0.00 0.00 32 1009.9
20260508195334 21 309 8.0 27.4 0.00 0.00 0.00 33 1009.7
20260508194317 21 279 11.3 25.7 0.00 0.00 0.00 32 1009.9
20260508193319 21 296 6.4 22.5 0.00 0.00 0.00 35 1010.0
20260508192341 20 261 11.3 19.3 0.00 0.00 0.00 33 1010.3
20260508191327 19 244 8.0 25.7 0.00 0.00 0.00 35 1010.3
20260508190326 19 271 6.4 16.1 0.00 0.00 0.00 36 1010.5
20260508185351 19 236 9.7 25.7 0.00 0.00 0.00 33 1010.7
20260508184316 19 261 8.0 35.4 0.00 0.00 0.00 34 1010.7
20260508183315 20 175 11.3 22.5 0.00 0.00 0.00 33 1010.7
20260508182336 20 180 12.9 25.7 0.00 0.00 0.00 37 1010.8
20260508181324 21 229 9.7 22.5 0.00 0.00 0.00 35 1010.9
20260508180350 20 275 9.7 30.6 0.00 0.00 0.00 34 1011.0
20260508175330 20 230 14.5 25.7 0.00 0.00 0.00 35 1011.2
20260508174338 20 275 11.3 22.5 0.00 0.00 0.00 35 1011.3
20260508173314 18 288 14.5 29.0 0.00 0.00 0.00 35 1011.4
20260508172313 20 232 8.0 24.1 0.00 0.00 0.00 35 1011.3
20260508171328 20 289 14.5 22.5 0.00 0.00 0.00 37 1011.6
20260508170331 19 217 6.4 29.0 0.00 0.00 0.00 37 1011.7
20260508165330 19 296 11.3 29.0 0.00 0.00 0.00 36 1011.9
20260508164317 18 296 12.9 22.5 0.00 0.00 0.00 40 1012.1
20260508163316 18 234 8.0 25.7 0.00 0.00 0.00 40 1012.1
20260508162318 18 258 8.0 17.7 0.00 0.00 0.00 39 1012.2
20260508161316 18 212 11.3 27.4 0.00 0.00 0.00 39 1012.2
20260508160317 18 248 11.3 27.4 0.00 0.00 0.00 38 1012.4
20260508155314 17 277 8.0 27.4 0.00 0.00 0.00 38 1012.4
20260508154334 18 273 8.0 22.5 0.00 0.00 0.00 40 1012.5
20260508153321 17 262 16.1 24.1 0.00 0.00 0.00 39 1012.7
20260508152313 17 295 11.3 22.5 0.00 0.00 0.00 38 1012.8
20260508151315 17 273 12.9 22.5 0.00 0.00 0.00 39 1012.8
20260508150326 17 255 9.7 27.4 0.00 0.00 0.00 41 1012.9
20260508145337 17 285 17.7 32.2 0.00 0.00 0.00 40 1013.0
20260508144317 17 211 11.3 25.7 0.00 0.00 0.00 43 1013.1
20260508143319 16 281 8.0 29.0 0.00 0.00 0.00 44 1013.1
20260508142312 16 299 11.3 20.9 0.00 0.00 0.00 44 1013.2
20260508141315 16 234 8.0 20.9 0.00 0.00 0.00 45 1013.3
20260508140336 16 241 11.3 22.5 0.00 0.00 0.00 46 1013.3
20260508135333 15 175 9.7 17.7 0.00 0.00 0.00 52 1013.4
20260508134353 15 219 8.0 14.5 0.00 0.00 0.00 51 1013.5
20260508133336 13 215 8.0 12.9 0.00 0.00 0.00 55 1013.6
20260508132313 12 205 8.0 14.5 0.00 0.00 0.00 57 1013.7
20260508131319 13 180 8.0 17.7 0.00 0.00 0.00 58 1013.8
20260508130336 13 215 8.0 16.1 0.00 0.00 0.00 55 1013.8
20260508125336 12 265 6.4 19.3 0.00 0.00 0.00 55 1013.8
20260508124338 12 201 9.7 16.1 0.00 0.00 0.00 57 1013.9
20260508123313 11 215 4.8 9.7 0.00 0.00 0.00 63 1013.8
20260508122338 10 150 4.8 9.7 0.00 0.00 0.00 64 1013.8
20260508121316 10 223 4.8 14.5 0.00 0.00 0.00 64 1013.8
20260508120345 10 193 6.4 16.1 0.00 0.00 0.00 63 1013.7
20260508115314 10 185 8.0 16.1 0.00 0.00 0.00 69 1013.7
20260508114338 7 175 8.0 12.9 0.00 0.00 0.00 81 1013.7
20260508113332 6 186 3.2 8.0 0.00 0.00 0.00 87 1013.3
20260508112312 5 84 0.0 3.2 0.00 0.00 0.00 86 1013.4
20260508111317 4 84 0.0 1.6 0.00 0.00 0.00 86 1013.3
20260508110351 3 84 0.0 1.6 0.00 0.00 0.00 86 1013.1
20260508105336 3 84 0.0 3.2 0.00 0.00 0.00 86 1013.0
20260508104312 3 84 0.0 1.6 0.00 0.00 0.00 85 1012.9
20260508103337 3 84 0.0 0.0 0.00 0.00 0.00 85 1012.8
20260508102312 3 84 0.0 3.2 0.00 0.00 0.00 84 1012.7
20260508101335 3 84 0.0 0.0 0.00 0.00 0.00 83 1012.6
20260508100314 3 84 0.0 1.6 0.00 0.00 0.00 82 1012.6
20260508095312 3 84 0.0 0.0 0.00 0.00 0.00 81 1012.4
20260508094311 3 84 0.0 1.6 0.00 0.00 0.00 81 1012.3
20260508093334 4 84 0.0 3.2 0.00 0.00 0.00 82 1012.3
20260508092317 3 84 3.2 3.2 0.00 0.00 0.00 82 1012.4
20260508091333 3 84 0.0 3.2 0.00 0.00 0.00 81 1012.5
20260508090321 4 84 0.0 0.0 0.00 0.00 0.00 79 1012.4
20260508085326 5 84 0.0 0.0 0.00 0.00 0.00 78 1012.3
20260508084311 5 84 0.0 1.6 0.00 0.00 0.00 76 1012.1
20260508083340 5 84 0.0 0.0 0.00 0.00 0.00 76 1012.0
20260508082335 5 84 0.0 1.6 0.00 0.00 0.00 75 1011.9
20260508081323 5 84 1.6 1.6 0.00 0.00 0.00 74 1012.0
20260508080319 6 84 0.0 0.0 0.00 0.00 0.00 73 1012.1
20260508075321 6 84 0.0 3.2 0.00 0.00 0.00 72 1012.0
20260508074345 6 84 1.6 3.2 0.00 0.00 0.00 71 1012.0
20260508073337 6 84 1.6 3.2 0.00 0.00 0.00 70 1011.9
20260508072316 7 84 0.0 4.8 0.00 0.00 0.00 69 1011.8
20260508071336 7 55 1.6 4.8 0.00 0.00 0.00 70 1011.7
20260508070334 7 61 3.2 8.0 0.00 0.00 0.00 70 1011.6
20260508065318 7 69 0.0 3.2 0.00 0.00 0.00 67 1011.7
20260508064339 8 67 0.0 3.2 0.00 0.00 0.00 65 1011.7
20260508063340 8 61 0.0 3.2 0.00 0.00 0.00 63 1011.7
20260508062317 9 15 1.6 6.4 0.00 0.00 0.00 61 1011.7
20260508061339 9 5 3.2 14.5 0.00 0.00 0.00 60 1011.6
20260508060337 9 351 4.8 9.7 0.00 0.00 0.00 61 1011.6
20260508055329 9 10 1.6 6.4 0.00 0.00 0.00 61 1011.5
20260508054340 9 360 3.2 14.5 0.00 0.00 0.00 61 1011.5
20260508053339 8 17 4.8 12.9 0.00 0.00 0.00 62 1011.4
20260508052340 8 320 1.6 4.8 0.00 0.00 0.00 61 1011.3
20260508051318 8 136 1.6 3.2 0.00 0.00 0.00 62 1011.2
20260508050316 9 123 1.6 4.8 0.00 0.00 0.00 61 1011.0
20260508045330 10 80 1.6 3.2 0.00 0.00 0.00 59 1010.9
20260508044315 10 96 1.6 3.2 0.00 0.00 0.00 58 1010.8
20260508043341 10 351 3.2 6.4 0.00 0.00 0.00 57 1010.6
20260508042334 10 220 0.0 4.8 0.00 0.00 0.00 59 1010.5
20260508041338 10 161 1.6 3.2 0.00 0.00 0.00 58 1010.3
20260508040323 10 152 1.6 4.8 0.00 0.00 0.00 57 1010.1
20260508035322 11 149 3.2 4.8 0.00 0.00 0.00 56 1009.9
20260508034317 10 169 1.6 3.2 0.00 0.00 0.00 56 1009.9
20260508033341 10 169 1.6 3.2 0.00 0.00 0.00 57 1009.8
20260508032315 10 169 0.0 3.2 0.00 0.00 0.00 57 1009.6
20260508031317 11 157 1.6 4.8 0.00 0.00 0.00 56 1009.6
20260508030319 11 157 1.6 3.2 0.00 0.00 0.00 55 1009.6
20260508025344 11 185 3.2 3.2 0.00 0.00 0.00 56 1009.5
20260508024332 11 311 0.0 3.2 0.00 0.00 0.00 54 1009.5
20260508023336 12 294 0.0 3.2 0.00 0.00 0.00 53 1009.4
20260508022320 12 294 0.0 3.2 0.00 0.00 0.00 52 1009.4
20260508021332 12 294 0.0 1.6 0.00 0.00 0.00 50 1009.3
20260508020400 13 302 0.0 8.0 0.00 0.00 0.00 49 1009.1
20260508015319 13 314 3.2 8.0 0.00 0.00 0.00 48 1009.1